Regional Weather Roundup
Issued by NWS Binghamton, NY

Current Version | Previous Version | Text Only | Print | Product List | Glossary On
Versions: 1 2 3 4 5 6 7 8 9 10 11 12 13 14 15 16 17 18 19 20 21 22 23 24 25 26 27 28 29 30 31 32 33 34 35 36 37 38 39 40 41 42 43 44 45 46 47 48
000
ASUS41 KBGM 230410
RWRBGM
RWRBGM
BINGHAMTON REGIONAL WEATHER ROUNDUP
NATIONAL WEATHER SERVICE BINGHAMTON NY
1100 PM EST MON DEC 22 2014

Note: "fair" indicates few or no clouds below 12,000 feet with no
significant weather and/or obstructions to visibility.

* = Station(s) that does not report precipitation, such as rain,
snow, etc, also no thunder or fog.

!NYZ009-015>018-022>025-036-037-044>046-055>057-062-230500
...CENTRAL NEW YORK...

CITY           SKY/WX    TMP DP  RH WIND       PRES   REMARKS
BINGHAMTON     LGT RAIN  34  34 100 SE7       30.09F FOG     WCI  28
CORTLAND       RAIN      36  36 100 CALM      30.12S
DANSVILLE      CLOUDY    36  28  73 SE8       30.08S WCI  30
ELMIRA         LGT RAIN  34  32  92 CALM      30.11S
ITHACA         LGT RAIN  36  34  92 SE6       30.11F WCI  31
HAMILTON       CLOUDY    37  34  87 S3        30.13S
MONTICELLO     CLOUDY    34  34 100 E10       30.15F WCI  26
NORWICH        LGT RAIN  34  34 100 CALM      30.14S
ONEONTA        DRIZZLE   34  34 100 CALM      30.11F
PENN YAN       LGT RAIN  35  30  82 S6        30.09S WCI  30
ROME           CLOUDY    35  31  85 SE7       30.18S WCI  29
SIDNEY         CLOUDY    39  39 100 CALM      30.13F
SYRACUSE       CLOUDY    35  31  85 E9        30.14S WCI  28
$$

!PAZ038>040-043-044-047-048-072-230500
...NORTHEAST PENNSYLVANIA...

CITY           SKY/WX    TMP DP  RH WIND       PRES   REMARKS
HAZLETON       LGT RAIN  37  37 100 E9G20     30.10F VSB 3/4 WCI  31
SCRANTON       CLOUDY    40  36  86 CALM      30.11F
TOWANDA*       PTCLDY    36  34  93 CALM      30.11F
$$
&&
KEY
WCI = WIND CHILL INDEX
VSB = VISIBILITY
HX  = HEAT INDEX
$$


USA.gov is the U.S. government's official web portal to all federal, state and local government web resources and services.